This demonstration page uses our WeatherBlox Daily Observations layout. Learn more.

40.92945, -100.16068

Hourly Observations for June 3, 2018

Temp ( °F °C ) Dew Point ( °F °C ) Humidity (%) Winds ( mph kmh ) Pressure ( in mb ) Visibility ( mi km ) Precip ( " mm )
12:15 am 00:15 Clear 55 12.8 48 9.1 78 78 W 5 7 30.18 1022 10 16.0934 0 0
12:35 am 00:35 Clear 55 12.6 48 8.9 78 78 NW 5 7 30.18 1022 10 16.0934 0 0
12:55 am 00:55 Clear 54 12.1 47 8.4 78 78 WNW 7 11 30.18 1022 10 16.0934 0 0
1:15 am 01:15 Clear 53 11.5 47 8.6 83 83 W 8 13 30.21 1023 10 16.0934 0 0
1:35 am 01:35 Clear 52 11.1 47 8.6 85 85 WNW 6 9 30.21 1023 10 16.0934 0 0
1:55 am 01:55 Clear 51 10.6 47 8.3 86 86 NW 6 9 30.21 1023 10 16.0934 0 0
2:15 am 02:15 Clear 52 11 47 8.3 84 84 W 6 9 30.21 1023 10 16.0934 0 0
2:35 am 02:35 Clear 51 10.7 47 8.1 84 84 WNW 7 11 30.21 1023 10 16.0934 0 0
2:55 am 02:55 Clear 50 10.1 46 7.7 85 85 WNW 7 11 30.21 1023 10 16.0934 0 0
3:15 am 03:15 Clear 51 10.3 46 8 86 86 NW 6 9 30.21 1023 10 16.0934 0 0
3:35 am 03:35 Clear 50 10 46 7.7 86 86 WNW 7 11 30.21 1023 10 16.0934 0 0
3:55 am 03:55 Clear 49 9.7 46 7.6 87 87 WNW 5 7 30.21 1023 10 16.0934 0 0
4:15 am 04:15 Clear 49 9.5 46 7.5 87 87 WNW 5 7 30.21 1023 10 16.0934 0 0
4:35 am 04:35 Clear 49 9.2 46 7.5 89 89 W 6 9 30.24 1024 10 16.0934 0 0
4:55 am 04:55 Clear 49 9.2 46 7.5 89 89 W 5 7 30.24 1024 10 16.0934 0 0
5:15 am 05:15 Clear 48 8.9 45 7.2 89 89 WNW 3 6 30.24 1024 10 16.0934 0 0
5:35 am 05:35 Clear 47 8.1 44 6.7 91 91 W 5 7 30.27 1025 10 16.0934 0 0
5:55 am 05:55 Clear 47 8.6 45 7 90 90 W 5 7 30.27 1025 10 16.0934 0 0
6:15 am 06:15 Sunny 47 8.5 45 7 90 90 W 5 7 30.27 1025 10 16.0934 0 0
6:35 am 06:35 Sunny 47 8.6 45 7.1 90 90 WNW 3 6 30.3 1026 10 16.0934 0 0
6:55 am 06:55 Sunny 48 8.9 45 7.4 90 90 NW 3 6 30.3 1026 10 16.0934 0 0
7:15 am 07:15 Sunny 50 10 47 8.5 91 91 Calm 30.27 1025 10 16.0934 0 0
7:35 am 07:35 Sunny 53 11.5 48 9.1 85 85 NW 5 7 30.27 1025 10 16.0934 0 0
7:55 am 07:55 Sunny 54 12.4 49 9.4 82 82 WNW 5 7 30.24 1024 10 16.0934 0 0
8:15 am 08:15 Sunny 56 13.4 50 10 80 80 NW 3 6 30.24 1024 10 16.0934 0 0
8:35 am 08:35 Sunny 59 14.8 51 10.8 77 77 WNW 6 9 30.24 1024 10 16.0934 0 0
8:55 am 08:55 Sunny 61 15.9 53 11.5 75 75 WNW 6 9 30.21 1023 10 16.0934 0 0
9:15 am 09:15 Sunny 63 17.4 53 11.5 68 68 WNW 5 7 30.21 1023 10 16.0934 0 0
9:35 am 09:35 Sunny 66 18.9 53 11.6 63 63 Calm 30.18 1022 10 16.0934 0 0
9:55 am 09:55 Sunny 68 20.1 50 10.1 53 53 Calm 30.18 1022 10 16.0934 0 0
10:15 am 10:15 Sunny 70 20.9 48 8.7 46 46 Calm 30.18 1022 10 16.0934 0 0
10:35 am 10:35 Sunny 71 21.6 46 7.5 40 40 Calm 30.18 1022 10 16.0934 0 0
10:55 am 10:55 Sunny 72 22 46 7.5 39 39 Calm 30.18 1022 10 16.0934 0 0
11:15 am 11:15 Sunny 73 22.5 46 7.5 38 38 Calm 30.15 1021 10 16.0934 0 0
11:35 am 11:35 Sunny 73 22.5 47 8.4 41 41 Calm 30.15 1021 10 16.0934 0 0
11:55 am 11:55 Sunny 74 23.1 48 8.9 40 40 Calm 30.15 1021 10 16.0934 0 0
12:15 pm 12:15 Sunny 73 23 46 7.7 38 38 ESE 3 6 30.15 1021 10 16.0934 0 0
12:35 pm 12:35 Sunny 74 23.5 48 9.1 40 40 ESE 5 7 30.15 1021 10 16.0934 0 0
12:55 pm 12:55 Sunny 74 23.6 44 6.6 34 34 Calm 30.12 1020 10 16.0934 0 0
1:15 pm 13:15 Sunny 75 24 47 8.1 36 36 WSW 3 6 30.12 1020 10 16.0934 0 0
1:35 pm 13:35 Sunny 76 24.6 46 7.9 35 35 Calm 30.12 1020 10 16.0934 0 0
1:55 pm 13:55 Sunny 76 24.5 45 7.3 33 33 Calm 30.12 1020 10 16.0934 0 0
2:15 pm 14:15 Sunny 76 24.7 47 8.1 35 35 Calm 30.09 1019 10 16.0934 0 0
2:35 pm 14:35 Sunny 76 24.7 46 8 35 35 N 5 7 30.09 1019 10 16.0934 0 0
2:55 pm 14:55 Sunny 77 25.1 50 9.8 38 38 E 3 6 30.09 1019 10 16.0934 0 0
3:15 pm 15:15 Sunny 77 25.2 47 8.5 35 35 Calm 30.03 1017 10 16.0934 0 0
3:35 pm 15:35 Sunny 78 25.5 43 6.3 29 29 Calm 30.03 1017 10 16.0934 0 0
3:55 pm 15:55 Sunny 79 26.2 48 9 34 34 Calm 30.03 1017 10 16.0934 0 0
4:15 pm 16:15 Sunny 79 26.1 46 8 32 32 ESE 5 7 30.03 1017 10 16.0934 0 0
4:35 pm 16:35 Sunny 79 26.2 48 8.8 33 33 Calm 30.03 1017 10 16.0934 0 0
4:55 pm 16:55 Hazy 79 26 51 10.4 38 38 ENE 5 7 30 1016 4 6.43736 0 0
5:15 pm 17:15 Sunny 78 25.7 49 9.5 36 36 ESE 6 9 30 1016 10 16.0934 0 0
5:35 pm 17:35 Sunny 79 26 49 9.2 35 35 SE 3 6 30 1016 10 16.0934 0 0
5:55 pm 17:55 Sunny 79 26.1 49 9.5 35 35 SE 7 11 30 1016 10 16.0934 0 0
6:15 pm 18:15 Sunny 78 25.7 49 9.5 36 36 SE 6 9 30 1016 10 16.0934 0 0
6:35 pm 18:35 Sunny 78 25.6 49 9.5 36 36 SSE 7 11 29.97 1015 10 16.0934 0 0
6:55 pm 18:55 Sunny 78 25.4 50 9.9 38 38 SE 7 11 29.97 1015 10 16.0934 0 0
7:15 pm 19:15 Sunny 77 25 51 10.3 40 40 ESE 8 13 29.97 1015 10 16.0934 0 0
7:35 pm 19:35 Sunny 75 24.1 52 11 44 44 ESE 7 11 30 1016 10 16.0934 0 0
7:55 pm 19:55 Sunny 75 24.1 50 10 41 41 SE 5 7 30 1016 10 16.0934 0 0
8:15 pm 20:15 Sunny 73 22.8 52 10.9 47 47 ESE 8 13 30 1016 10 16.0934 0 0
8:35 pm 20:35 Sunny 72 22 51 10.6 48 48 ESE 8 13 30 1016 10 16.0934 0 0
8:55 pm 20:55 Sunny 70 21.2 51 10.6 51 51 E 8 13 30 1016 10 16.0934 0 0
9:15 pm 21:15 Clear 70 21.1 52 11 53 53 ESE 6 9 30 1016 10 16.0934 0 0
9:35 pm 21:35 Clear 69 20.6 52 10.9 54 54 ESE 7 11 30.03 1017 10 16.0934 0 0
9:55 pm 21:55 Clear 66 19 53 11.5 62 62 ESE 6 9 30.03 1017 10 16.0934 0 0
10:15 pm 22:15 Clear 66 19 53 11.5 62 62 ESE 6 9 30.03 1017 10 16.0934 0 0
10:35 pm 22:35 Clear 65 18.1 53 11.7 66 66 E 7 11 30.03 1017 10 16.0934 0 0
10:55 pm 22:55 Clear 65 18.1 53 11.6 66 66 ESE 6 9 30.03 1017 10 16.0934 0 0
11:15 pm 23:15 Clear 64 17.5 52 11.2 67 67 ESE 7 11 30.03 1017 10 16.0934 0 0
11:35 pm 23:35 Clear 65 18.1 52 11.2 64 64 ESE 7 11 30.03 1017 10 16.0934 0 0
11:55 pm 23:55 Clear 65 18.2 52 11.1 63 63 ESE 9 15 30 1016 10 16.0934 0 0

Powered by AerisWeather